• In Italy
  • List of Countries
  • For 7 days
  • Water Temperature
  • Satellite Maps
  • Weather Map
  • Weather Widgets
  • user-avatar
    Login

    Hourly Weather Herāt

    Today, 19 October, Thursday

    Time Temperature Precipitation Wind Pressure Humidity
    00:00 +12°C° 0 mm 4 mps 684 mmHg 38%
    01:00 +11°C° 0 mm 4 mps 684 mmHg 38%
    02:00 +11°C° 0 mm 4 mps 684 mmHg 39%
    03:00 +11°C° 0 mm 4 mps 684 mmHg 39%
    04:00 +10°C° 0 mm 4 mps 684 mmHg 40%
    05:00 +10°C° 0 mm 4 mps 684 mmHg 39%
    06:00 +11°C° 0 mm 4 mps 684 mmHg 39%
    07:00 +11°C° 0 mm 4 mps 685 mmHg 38%
    08:00 +13°C° 0 mm 5 mps 685 mmHg 32%
    09:00 +15°C° 0 mm 6 mps 685 mmHg 26%
    10:00 +19°C° 0 mm 6 mps 686 mmHg 19%
    11:00 +20°C° 0 mm 7 mps 685 mmHg 18%
    12:00 +20°C° 0 mm 7 mps 685 mmHg 18%
    13:00 +21°C° 0 mm 8 mps 685 mmHg 17%
    14:00 +21°C° 0 mm 8 mps 684 mmHg 18%
    15:00 +20°C° 0 mm 8 mps 684 mmHg 19%
    16:00 +20°C° 0 mm 8 mps 684 mmHg 20%
    17:00 +17°C° 0 mm 7 mps 684 mmHg 23%
    18:00 +16°C° 0 mm 7 mps 683 mmHg 27%
    19:00 +14°C° 0 mm 6 mps 683 mmHg 30%
    20:00 +14°C° 0 mm 5 mps 683 mmHg 32%
    21:00 +13°C° 0 mm 5 mps 683 mmHg 33%
    22:00 +13°C° 0 mm 4 mps 683 mmHg 35%
    23:00 +12°C° 0 mm 4 mps 683 mmHg 36%

    Tomorrow, 20 October, Friday

    Time Temperature Precipitation Wind Pressure Humidity
    00:00 +12°C° 0 mm 3 mps 682 mmHg 37%
    01:00 +11°C° 0 mm 3 mps 682 mmHg 38%
    02:00 +11°C° 0 mm 3 mps 681 mmHg 38%
    03:00 +10°C° 0 mm 3 mps 681 mmHg 38%
    04:00 +10°C° 0 mm 3 mps 681 mmHg 38%
    05:00 +10°C° 0 mm 2 mps 681 mmHg 37%
    06:00 +12°C° 0 mm 2 mps 681 mmHg 35%
    07:00 +12°C° 0 mm 2 mps 681 mmHg 33%
    08:00 +15°C° 0 mm 2 mps 681 mmHg 28%
    09:00 +18°C° 0 mm 1 mps 681 mmHg 23%
    10:00 +20°C° 0 mm 1 mps 682 mmHg 17%
    11:00 +21°C° 0 mm 2 mps 681 mmHg 15%
    12:00 +23°C° 0 mm 2 mps 681 mmHg 13%
    13:00 +24°C° 0 mm 3 mps 681 mmHg 11%
    14:00 +24°C° 0 mm 2 mps 680 mmHg 11%
    15:00 +24°C° 0 mm 2 mps 680 mmHg 10%
    16:00 +24°C° 0 mm 2 mps 680 mmHg 10%
    17:00 +21°C° 0 mm 2 mps 680 mmHg 13%
    18:00 +20°C° 0 mm 1 mps 679 mmHg 15%
    19:00 +16°C° 0 mm 0 mps 679 mmHg 18%
    20:00 +15°C° 0 mm 0 mps 679 mmHg 18%
    21:00 +14°C° 0 mm 0 mps 679 mmHg 19%
    22:00 +14°C° 0 mm 0 mps 679 mmHg 19%
    23:00 +13°C° 0 mm 0 mps 678 mmHg 20%

    Day after tomorrow, 21 October, Saturday

    Time Temperature Precipitation Wind Pressure Humidity
    00:00 +13°C° 0 mm 0 mps 678 mmHg 20%
    01:00 +13°C° 0 mm 0 mps 678 mmHg 20%
    02:00 +13°C° 0 mm 1 mps 678 mmHg 21%
    03:00 +13°C° 0 mm 1 mps 678 mmHg 21%
    04:00 +13°C° 0 mm 1 mps 678 mmHg 22%
    05:00 +13°C° 0 mm 1 mps 678 mmHg 21%
    06:00 +14°C° 0 mm 1 mps 678 mmHg 21%
    07:00 +15°C° 0 mm 1 mps 679 mmHg 21%
    08:00 +17°C° 0 mm 2 mps 679 mmHg 18%
    09:00 +19°C° 0 mm 2 mps 680 mmHg 15%
    10:00 +21°C° 0 mm 2 mps 681 mmHg 12%
    11:00 +23°C° 0 mm 2 mps 680 mmHg 12%
    12:00 +22°C° 0 mm 3 mps 680 mmHg 12%
    13:00 +24°C° 0 mm 3 mps 680 mmHg 11%
    14:00 +23°C° 0 mm 4 mps 680 mmHg 12%
    15:00 +23°C° 0 mm 4 mps 679 mmHg 13%
    16:00 +22°C° 0 mm 4 mps 679 mmHg 14%
    17:00 +21°C° 0 mm 4 mps 679 mmHg 16%
    18:00 +19°C° 0 mm 4 mps 679 mmHg 18%
    19:00 +17°C° 0 mm 4 mps 680 mmHg 20%
    20:00 +17°C° 0 mm 4 mps 680 mmHg 21%
    21:00 +16°C° 0 mm 3 mps 680 mmHg 22%
    22:00 +14°C° 0 mm 3 mps 680 mmHg 24%
    23:00 +14°C° 0 mm 3 mps 679 mmHg 25%

    22 October, Sunday

    Time Temperature Precipitation Wind Pressure Humidity
    00:00 +14°C° 0 mm 2 mps 679 mmHg 26%
    01:00 +14°C° 0 mm 2 mps 678 mmHg 27%
    02:00 +13°C° 0 mm 2 mps 678 mmHg 27%
    03:00 +13°C° 0 mm 2 mps 678 mmHg 28%
    04:00 +13°C° 0 mm 2 mps 678 mmHg 28%
    05:00 +13°C° 0 mm 2 mps 678 mmHg 27%
    06:00 +13°C° 0 mm 2 mps 678 mmHg 27%
    07:00 +14°C° 0 mm 2 mps 679 mmHg 26%
    08:00 +16°C° 0 mm 1 mps 679 mmHg 22%
    09:00 +19°C° 0 mm 1 mps 679 mmHg 19%
    10:00 +21°C° 0 mm 1 mps 680 mmHg 15%
    11:00 +22°C° 0 mm 1 mps 679 mmHg 14%
    12:00 +23°C° 0 mm 2 mps 679 mmHg 13%
    13:00 +24°C° 0 mm 2 mps 678 mmHg 12%
    14:00 +24°C° 0 mm 2 mps 678 mmHg 12%
    15:00 +24°C° 0 mm 2 mps 678 mmHg 12%
    16:00 +24°C° 0 mm 2 mps 678 mmHg 12%
    17:00 +21°C° 0 mm 2 mps 678 mmHg 14%
    18:00 +19°C° 0 mm 2 mps 678 mmHg 16%
    19:00 +18°C° 0 mm 2 mps 678 mmHg 18%
    20:00 +17°C° 0 mm 2 mps 678 mmHg 18%
    21:00 +17°C° 0 mm 2 mps 678 mmHg 18%
    22:00 +16°C° 0 mm 1 mps 678 mmHg 19%
    23:00 +16°C° 0 mm 1 mps 678 mmHg 19%

    23 October, Monday

    Time Temperature Precipitation Wind Pressure Humidity
    00:00 +15°C° 0 mm 1 mps 678 mmHg 19%
    01:00 +15°C° 0 mm 1 mps 677 mmHg 19%
    02:00 +15°C° 0 mm 2 mps 677 mmHg 19%
    03:00 +14°C° 0 mm 2 mps 677 mmHg 19%
    04:00 +14°C° 0 mm 2 mps 677 mmHg 19%
    05:00 +15°C° 0 mm 2 mps 678 mmHg 18%
    06:00 +15°C° 0 mm 2 mps 678 mmHg 18%
    07:00 +16°C° 0 mm 2 mps 678 mmHg 17%
    08:00 +18°C° 0 mm 2 mps 679 mmHg 15%
    09:00 +20°C° 0 mm 2 mps 680 mmHg 13%
    10:00 +24°C° 0 mm 2 mps 680 mmHg 11%
    11:00 +25°C° 0 mm 3 mps 680 mmHg 11%
    12:00 +26°C° 0 mm 3 mps 680 mmHg 10%
    13:00 +27°C° 0 mm 4 mps 680 mmHg 10%
    14:00 +27°C° 0 mm 3 mps 680 mmHg 10%
    15:00 +26°C° 0 mm 3 mps 680 mmHg 10%
    16:00 +26°C° 0 mm 3 mps 680 mmHg 10%
    17:00 +24°C° 0 mm 2 mps 680 mmHg 11%
    18:00 +21°C° 0 mm 2 mps 680 mmHg 13%
    19:00 +20°C° 0 mm 1 mps 680 mmHg 15%
    20:00 +20°C° 0 mm 1 mps 681 mmHg 15%
    21:00 +18°C° 0 mm 2 mps 681 mmHg 16%
    22:00 +18°C° 0 mm 2 mps 681 mmHg 16%
    23:00 +18°C° 0 mm 2 mps 681 mmHg 17%

    24 October, Tuesday

    Time Temperature Precipitation Wind Pressure Humidity
    00:00 +17°C° 0 mm 2 mps 681 mmHg 17%
    01:00 +17°C° 0 mm 2 mps 682 mmHg 17%
    02:00 +17°C° 0 mm 3 mps 682 mmHg 18%
    03:00 +16°C° 0 mm 3 mps 682 mmHg 18%
    04:00 +16°C° 0 mm 3 mps 682 mmHg 19%
    05:00 +16°C° 0 mm 3 mps 682 mmHg 18%
    06:00 +16°C° 0 mm 3 mps 683 mmHg 18%
    07:00 +16°C° 0 mm 3 mps 683 mmHg 18%
    08:00 +19°C° 0 mm 3 mps 683 mmHg 16%
    09:00 +21°C° 0 mm 2 mps 684 mmHg 13%
    10:00 +24°C° 0 mm 2 mps 685 mmHg 11%
    11:00 +25°C° 0 mm 2 mps 684 mmHg 10%
    12:00 +26°C° 0 mm 2 mps 684 mmHg 9%
    13:00 +27°C° 0 mm 2 mps 683 mmHg 9%
    14:00 +27°C° 0 mm 2 mps 683 mmHg 9%
    15:00 +27°C° 0 mm 2 mps 683 mmHg 9%
    16:00 +27°C° 0 mm 2 mps 683 mmHg 9%
    17:00 +25°C° 0 mm 2 mps 683 mmHg 11%
    18:00 +23°C° 0 mm 2 mps 682 mmHg 12%
    19:00 +21°C° 0 mm 1 mps 682 mmHg 14%
    20:00 +20°C° 0 mm 2 mps 682 mmHg 14%
    21:00 +19°C° 0 mm 2 mps 682 mmHg 14%
    22:00 +19°C° 0 mm 2 mps 682 mmHg 14%
    23:00 +18°C° 0 mm 2 mps 682 mmHg 15%
    Show more